Location: Unspecified
(0.0000°N, 0.0000°E)
Time: 09:39:36
(UTC+00:00)

N. Korean satellite - Pass Details

Date: 04 June 2020
Orbit: 454 x 505 km, 97.2° (Epoch: 06 July)

Event Time Altitude Azimuth Distance (km) Brightness Sun altitude
Rises 04:28:02 0° 43° (NE) 2,562 11.4 -20.8°
Reaches altitude 10° 04:31:01 10° 71° (ENE) 1,674 10.5 -20.1°
Maximum altitude 04:32:48 13° 101° (E) 1,470 9.7 -19.7°
Drops below altitude 10° 04:34:36 10° 131° (SE) 1,663 9.6 -19.3°
Sets 04:37:32 0° 159° (SSE) 2,533 10.2 -18.6°
